2016-11-18 00:09:48 r, 17.89m,0000000006Hz,0000078597c,0000000.171s, 012.8C,00002191
2016-11-18 00:19:48 r, 17.79m,0000000007Hz,0000071849c,0000000.156s, 012.8C,00002191
2016-11-18 00:29:48 r, 17.78m,0000000006Hz,0000071332c,0000000.155s, 012.8C,00002191
2016-11-18 00:39:48 r, 17.67m,0000000007Hz,0000064336c,0000000.140s, 012.8C,00002191
2016-11-18 00:49:48 r, 17.59m,0000000008Hz,0000059494c,0000000.129s, 012.5C,00002191
2016-11-18 00:59:48 r, 17.59m,0000000008Hz,0000059397c,0000000.129s, 012.5C,00002191
2016-11-18 01:09:48 r, 17.54m,0000000008Hz,0000056744c,0000000.123s, 012.5C,00002191
2016-11-18 01:19:48 r, 17.50m,0000000009Hz,0000054942c,0000000.119s, 012.5C,00002191
2016-11-18 01:29:48 r, 17.47m,0000000008Hz,0000053361c,0000000.116s, 012.5C,00002191
2016-11-18 01:39:48 r, 17.59m,0000000007Hz,0000059465c,0000000.129s, 012.5C,00002191
2016-11-18 01:49:48 r, 17.66m,0000000008Hz,0000063443c,0000000.138s, 012.8C,00002191
2016-11-18 01:59:48 r, 17.57m,0000000007Hz,0000058472c,0000000.127s, 012.8C,00002191
2016-11-18 02:09:48 r, 17.38m,0000000010Hz,0000049148c,0000000.107s, 012.5C,00002191
2016-11-18 02:19:48 r, 17.33m,0000000010Hz,0000046762c,0000000.101s, 012.5C,00002191
2016-11-18 02:29:48 r, 17.22m,0000000011Hz,0000042629c,0000000.093s, 012.2C,00002191
2016-11-18 02:39:48 r, 17.26m,0000000011Hz,0000043776c,0000000.095s, 012.2C,00002191
2016-11-18 02:49:48 r, 17.39m,0000000010Hz,0000049850c,0000000.108s, 012.2C,00002191
2016-11-18 02:59:48 r, 17.39m,0000000009Hz,0000049213c,0000000.107s, 012.2C,00002191
2016-11-18 03:09:47 r, 17.32m,0000000010Hz,0000046341c,0000000.101s, 011.9C,00002191
2016-11-18 03:19:47 r, 17.20m,0000000011Hz,0000041483c,0000000.090s, 011.9C,00002191
2016-11-18 03:29:48 r, 17.16m,0000000012Hz,0000040326c,0000000.088s, 011.9C,00002191
2016-11-18 03:39:47 r, 16.94m,0000000014Hz,0000032874c,0000000.071s, 011.9C,00002191
2016-11-18 03:49:48 r, 16.95m,0000000014Hz,0000033137c,0000000.072s, 011.9C,00002191
2016-11-18 03:59:48 r, 16.96m,0000000014Hz,0000033394c,0000000.072s, 011.6C,00002191
2016-11-18 04:09:47 r, 16.90m,0000000014Hz,0000031697c,0000000.069s, 011.6C,00002191
2016-11-18 04:19:48 r, 17.10m,0000000012Hz,0000037964c,0000000.082s, 011.6C,00002191
2016-11-18 04:29:47 r, 17.13m,0000000012Hz,0000038949c,0000000.085s, 011.6C,00002191
2016-11-18 04:39:47 r, 17.25m,0000000011Hz,0000043698c,0000000.095s, 011.6C,00002191
2016-11-18 04:49:48 r, 17.34m,0000000010Hz,0000047120c,0000000.102s, 011.6C,00002191
2016-11-18 04:59:48 r, 17.41m,0000000009Hz,0000050234c,0000000.109s, 011.6C,00002191
2016-11-18 05:09:48 r, 17.44m,0000000009Hz,0000051955c,0000000.113s, 011.6C,00002191
2016-11-18 05:19:48 r, 17.54m,0000000008Hz,0000056755c,0000000.123s, 011.6C,00002191
2016-11-18 05:29:48 r, 17.57m,0000000007Hz,0000058451c,0000000.127s, 011.9C,00002191
2016-11-18 05:39:48 r, 17.53m,0000000008Hz,0000056573c,0000000.123s, 011.9C,00002191
2016-11-18 05:49:48 r, 17.56m,0000000008Hz,0000057694c,0000000.125s, 011.9C,00002191
2016-11-18 05:59:48 r, 17.50m,0000000008Hz,0000054942c,0000000.119s, 011.9C,00002191
2016-11-18 06:09:47 r, 17.55m,0000000008Hz,0000057534c,0000000.125s, 012.2C,00002191
2016-11-18 06:19:47 r, 17.56m,0000000008Hz,0000057726c,0000000.125s, 012.2C,00002191
2016-11-18 06:29:48 r, 17.55m,0000000008Hz,0000057522c,0000000.125s, 011.9C,00002191
2016-11-18 06:39:48 r, 17.34m,0000000010Hz,0000047190c,0000000.102s, 011.9C,00002191
2016-11-18 06:49:48 r, 16.65m,0000000018Hz,0000025201c,0000000.055s, 011.9C,00002191
2016-11-18 06:59:48 r, 15.28m,0000000064Hz,0000007119c,0000000.015s, 011.9C,00002191
2016-11-18 07:09:48 r, 13.42m,0000000362Hz,0000000000c,0000000.000s, 012.2C,00002191
2016-11-18 07:19:48 r, 11.45m,0000002234Hz,0000000000c,0000000.000s, 011.9C,00002191
2016-11-18 07:29:48 r, 09.68m,0000011305Hz,0000000000c,0000000.000s, 011.9C,00002191
2016-11-18 07:39:48 r, 08.38m,0000037661Hz,0000000000c,0000000.000s, 011.9C,00002191
2016-11-18 07:49:48 r, 07.51m,0000084334Hz,0000000000c,0000000.000s, 011.9C,00002191
2016-11-18 07:59:48 r, 06.79m,0000162713Hz,0000000000c,0000000.000s, 012.2C,00002191
2016-11-18 08:09:48 r, 06.15m,0000293378Hz,0000000000c,0000000.000s, 012.2C,00002191
2016-11-18 08:19:48 r, 00.00m,0000469400Hz,0000000000c,0000000.000s, 012.2C,00002191
2016-11-18 08:29:48 r, 00.00m,0000597394Hz,0000000000c,0000000.000s, 012.5C,00002191
2016-11-18 08:39:47 r, 00.00m,0000597301Hz,0000000000c,0000000.000s, 012.8C,00002191
2016-11-18 08:49:47 r, 00.00m,0000401489Hz,0000000000c,0000000.000s, 012.8C,00002191
2016-11-18 08:59:47 r, 00.00m,0000597300Hz,0000000000c,0000000.000s, 013.2C,00002191
2016-11-18 09:09:47 r, 00.00m,0000597325Hz,0000000000c,0000000.000s, 013.5C,00002191
2016-11-18 09:19:47 r, 00.00m,0000597301Hz,0000000000c,0000000.000s, 013.5C,00002191
2016-11-18 09:29:48 r, 00.00m,0000597260Hz,0000000000c,0000000.000s, 013.5C,00002191
2016-11-18 09:39:47 r, 00.00m,0000597291Hz,0000000000c,0000000.000s, 013.5C,00002191
2016-11-18 09:49:48 r, 00.00m,0000597276Hz,0000000000c,0000000.000s, 013.8C,00002191
2016-11-18 09:59:48 r, 00.00m,0000597239Hz,0000000000c,0000000.000s, 013.8C,00002191
2016-11-18 10:09:48 r, 00.00m,0000597241Hz,0000000000c,0000000.000s, 014.1C,00002191
2016-11-18 10:19:47 r, 00.00m,0000597216Hz,0000000000c,0000000.000s, 014.1C,00002191
2016-11-18 10:29:48 r, 00.00m,0000597263Hz,0000000000c,0000000.000s, 014.1C,00002191
2016-11-18 10:39:48 r, 00.00m,0000597179Hz,0000000000c,0000000.000s, 014.1C,00002191
2016-11-18 10:49:48 r, 00.00m,0000597123Hz,0000000000c,0000000.000s, 014.5C,00002191
2016-11-18 10:59:48 r, 00.00m,0000597164Hz,0000000000c,0000000.000s, 014.5C,00002191
2016-11-18 11:09:48 r, 00.00m,0000597077Hz,0000000000c,0000000.000s, 014.8C,00002191
2016-11-18 11:19:48 r, 00.00m,0000597121Hz,0000000000c,0000000.000s, 014.8C,00002191
2016-11-18 11:29:48 r, 00.00m,0000597174Hz,0000000000c,0000000.000s, 014.8C,00002191
2016-11-18 11:39:48 r, 00.00m,0000597075Hz,0000000000c,0000000.000s, 015.1C,00002191
2016-11-18 11:49:48 r, 00.00m,0000597020Hz,0000000000c,0000000.000s, 015.4C,00002191
2016-11-18 11:59:48 r, 00.00m,0000597055Hz,0000000000c,0000000.000s, 015.4C,00002191
2016-11-18 12:09:48 r, 00.00m,0000596995Hz,0000000000c,0000000.000s, 015.4C,00002191
2016-11-18 12:19:48 r, 00.00m,0000596952Hz,0000000000c,0000000.000s, 015.4C,00002191
2016-11-18 12:29:48 r, 00.00m,0000597034Hz,0000000000c,0000000.000s, 015.4C,00002191
2016-11-18 12:39:48 r, 00.00m,0000597056Hz,0000000000c,0000000.000s, 015.7C,00002191
2016-11-18 12:49:48 r, 00.00m,0000597010Hz,0000000000c,0000000.000s, 015.7C,00002191
2016-11-18 12:59:47 r, 00.00m,0000596998Hz,0000000000c,0000000.000s, 015.7C,00002191
2016-11-18 13:09:48 r, 00.00m,0000596896Hz,0000000000c,0000000.000s, 015.7C,00002191
2016-11-18 13:19:48 r, 00.00m,0000596941Hz,0000000000c,0000000.000s, 015.7C,00002191
2016-11-18 13:29:48 r, 00.00m,0000597011Hz,0000000000c,0000000.000s, 015.7C,00002191
2016-11-18 13:39:48 r, 00.00m,0000596906Hz,0000000000c,0000000.000s, 016.1C,00002191
2016-11-18 13:49:47 r, 00.00m,0000596947Hz,0000000000c,0000000.000s, 016.1C,00002191
2016-11-18 13:59:48 r, 00.00m,0000597001Hz,0000000000c,0000000.000s, 015.7C,00002191
2016-11-18 14:09:48 r, 00.00m,0000597010Hz,0000000000c,0000000.000s, 015.7C,00002191
2016-11-18 14:19:48 r, 00.00m,0000596971Hz,0000000000c,0000000.000s, 015.7C,00002191
2016-11-18 14:29:47 r, 00.00m,0000597162Hz,0000000000c,0000000.000s, 015.4C,00002191
2016-11-18 14:39:47 r, 00.00m,0000597056Hz,0000000000c,0000000.000s, 015.4C,00002191
2016-11-18 14:49:48 r, 00.00m,0000597076Hz,0000000000c,0000000.000s, 015.4C,00002191
2016-11-18 14:59:48 r, 00.00m,0000597064Hz,0000000000c,0000000.000s, 015.4C,00002191
2016-11-18 15:09:48 r, 00.00m,0000597136Hz,0000000000c,0000000.000s, 015.4C,00002191
2016-11-18 15:19:48 r, 00.00m,0000597163Hz,0000000000c,0000000.000s, 015.1C,00002191
2016-11-18 15:29:47 r, 00.00m,0000597145Hz,0000000000c,0000000.000s, 014.8C,00002191
2016-11-18 15:39:48 r, 00.00m,0000597138Hz,0000000000c,0000000.000s, 014.8C,00002191
2016-11-18 15:49:47 r, 00.00m,0000597214Hz,0000000000c,0000000.000s, 014.8C,00002191
2016-11-18 15:59:47 r, 00.00m,0000597167Hz,0000000000c,0000000.000s, 014.5C,00002191
2016-11-18 16:09:48 r, 00.00m,0000597323Hz,0000000000c,0000000.000s, 014.1C,00002191
2016-11-18 16:19:47 r, 00.00m,0000415942Hz,0000000000c,0000000.000s, 014.1C,00002191
2016-11-18 16:29:49 r, 06.49m,0000215035Hz,0000000000c,0000000.000s, 013.5C,00002191
2016-11-18 16:39:47 r, 07.39m,0000094079Hz,0000000000c,0000000.000s, 013.5C,00002191
2016-11-18 16:49:48 r, 08.49m,0000033960Hz,0000000000c,0000000.000s, 013.2C,00002191
2016-11-18 16:59:48 r, 09.74m,0000010755Hz,0000000000c,0000000.000s, 012.8C,00002191
2016-11-18 17:09:48 r, 11.54m,0000002044Hz,0000000000c,0000000.000s, 012.8C,00002191
2016-11-18 17:19:48 r, 13.72m,0000000274Hz,0000000000c,0000000.000s, 012.8C,00002191
2016-11-18 17:29:47 r, 15.56m,0000000051Hz,0000009156c,0000000.020s, 012.5C,00002191
2016-11-18 17:39:47 r, 17.26m,0000000011Hz,0000044108c,0000000.096s, 012.5C,00002191
2016-11-18 17:49:47 r, 18.61m,0000000003Hz,0000151601c,0000000.329s, 012.5C,00002191
2016-11-18 17:59:48 r, 19.46m,0000000001Hz,0000330246c,0000000.717s, 012.2C,00002191
2016-11-18 18:09:48 r, 20.04m,0000000000Hz,0000565502c,0000001.227s, 012.2C,00002191
2016-11-18 18:19:48 r, 20.12m,0000000001Hz,0000607747c,0000001.319s, 012.2C,00002191
2016-11-18 18:29:48 r, 20.04m,0000000001Hz,0000569206c,0000001.235s, 012.2C,00002191
2016-11-18 18:39:47 r, 20.21m,0000000001Hz,0000661399c,0000001.435s, 012.2C,00002191
2016-11-18 18:49:48 r, 20.35m,0000000000Hz,0000743896c,0000001.614s, 011.9C,00002191
2016-11-18 18:59:48 r, 20.53m,0000000001Hz,0000880366c,0000001.911s, 011.9C,00002191
2016-11-18 19:09:47 r, 20.39m,0000000000Hz,0000774135c,0000001.680s, 011.9C,00002191
2016-11-18 19:19:48 r, 20.46m,0000000000Hz,0000820614c,0000001.781s, 011.9C,00002191
2016-11-18 19:29:48 r, 20.25m,0000000000Hz,0000677629c,0000001.471s, 011.6C,00002191
2016-11-18 19:39:48 r, 20.53m,0000000000Hz,0000882833c,0000001.916s, 011.6C,00002191
2016-11-18 19:49:48 r, 20.37m,0000000000Hz,0000758291c,0000001.646s, 011.2C,00002191
2016-11-18 19:59:47 r, 20.32m,0000000000Hz,0000722671c,0000001.568s, 010.9C,00002191
2016-11-18 20:09:47 r, 20.20m,0000000000Hz,0000654983c,0000001.421s, 010.9C,00002191
2016-11-18 20:19:48 r, 20.25m,0000000000Hz,0000681679c,0000001.479s, 010.6C,00002191
2016-11-18 20:29:47 r, 20.30m,0000000001Hz,0000716132c,0000001.554s, 010.6C,00002191
2016-11-18 20:39:47 r, 20.16m,0000000001Hz,0000623985c,0000001.354s, 010.6C,00002191
2016-11-18 20:49:48 r, 20.25m,0000000001Hz,0000683217c,0000001.483s, 010.6C,00002191
2016-11-18 20:59:48 r, 20.26m,0000000001Hz,0000684314c,0000001.485s, 010.6C,00002191
2016-11-18 21:09:48 r, 20.27m,0000000001Hz,0000692152c,0000001.502s, 010.6C,00002191
2016-11-18 21:19:47 r, 20.31m,0000000000Hz,0000718870c,0000001.560s, 010.3C,00002191
2016-11-18 21:29:48 r, 20.20m,0000000001Hz,0000647932c,0000001.406s, 010.3C,00002191
2016-11-18 21:39:47 r, 20.11m,0000000001Hz,0000601598c,0000001.306s, 010.3C,00002191
2016-11-18 21:49:48 r, 20.01m,0000000000Hz,0000549223c,0000001.192s, 010.3C,00002191
2016-11-18 21:59:47 r, 19.83m,0000000001Hz,0000464231c,0000001.007s, 009.9C,00002191
2016-11-18 22:09:47 r, 19.78m,0000000001Hz,0000444478c,0000000.965s, 009.9C,00002191
2016-11-18 22:19:47 r, 19.64m,0000000002Hz,0000389743c,0000000.846s, 009.9C,00002191
2016-11-18 22:29:48 r, 19.56m,0000000002Hz,0000361932c,0000000.785s, 009.9C,00002191
2016-11-18 22:39:48 r, 19.56m,0000000002Hz,0000362736c,0000000.787s, 009.9C,00002191
2016-11-18 22:49:47 r, 19.37m,0000000001Hz,0000307143c,0000000.667s, 009.9C,00002191
2016-11-18 22:59:48 r, 19.22m,0000000001Hz,0000265882c,0000000.577s, 009.9C,00002191
2016-11-18 23:09:48 r, 19.11m,0000000002Hz,0000240162c,0000000.521s, 010.3C,00002191
2016-11-18 23:19:48 r, 19.03m,0000000002Hz,0000221642c,0000000.481s, 009.9C,00002191
2016-11-18 23:29:48 r, 18.98m,0000000002Hz,0000213899c,0000000.464s, 009.9C,00002191
2016-11-18 23:39:48 r, 18.91m,0000000003Hz,0000200529c,0000000.435s, 009.9C,00002191
2016-11-18 23:49:47 r, 18.88m,0000000002Hz,0000193881c,0000000.421s, 009.9C,00002191
2016-11-18 23:59:48 r, 18.72m,0000000002Hz,0000166991c,0000000.362s, 009.9C,00002191
